When you browse on this site, cookies collect data to enhance your experience and personalize the content and advertising you see.
Visit our Privacy Policy to learn more. By continuing to use the site, you agree to this use of cookies and data.
EN

Hourly Weather Kyrdzhali

Today, 10 August, Monday

Time Temperature Precipitation Wind Pressure Humidity
00:00 +20°C° 0 mm 2 mps 725 mmHg 67%
01:00 +19°C° 0 mm 2 mps 725 mmHg 69%
02:00 +19°C° 0 mm 2 mps 725 mmHg 71%
03:00 +19°C° 0 mm 2 mps 725 mmHg 71%
04:00 +18°C° 0 mm 2 mps 725 mmHg 70%
05:00 +18°C° 0 mm 2 mps 725 mmHg 70%
06:00 +20°C° 0 mm 3 mps 725 mmHg 63%
07:00 +22°C° 0 mm 4 mps 725 mmHg 55%
08:00 +25°C° 0 mm 5 mps 726 mmHg 47%
09:00 +27°C° 0 mm 5 mps 726 mmHg 43%
10:00 +28°C° 0 mm 5 mps 726 mmHg 38%
11:00 +30°C° 0 mm 5 mps 727 mmHg 33%
12:00 +32°C° 0 mm 5 mps 726 mmHg 31%
13:00 +33°C° 0 mm 5 mps 726 mmHg 29%
14:00 +34°C° 0 mm 5 mps 726 mmHg 27%
15:00 +34°C° 0 mm 5 mps 726 mmHg 28%
16:00 +33°C° 0 mm 5 mps 725 mmHg 29%
17:00 +33°C° 0 mm 5 mps 725 mmHg 30%
18:00 +30°C° 0 mm 4 mps 725 mmHg 34%
19:00 +28°C° 0 mm 3 mps 725 mmHg 39%
20:00 +25°C° 0 mm 2 mps 725 mmHg 44%
21:00 +24°C° 0 mm 2 mps 726 mmHg 48%
22:00 +23°C° 0 mm 1 mps 726 mmHg 52%
23:00 +22°C° 0 mm 1 mps 726 mmHg 56%

Tomorrow, 11 August, Tuesday

Time Temperature Precipitation Wind Pressure Humidity
00:00 +21°C° 0 mm 1 mps 726 mmHg 58%
01:00 +21°C° 0 mm 1 mps 726 mmHg 59%
02:00 +20°C° 0 mm 1 mps 726 mmHg 61%
03:00 +20°C° 0 mm 1 mps 726 mmHg 62%
04:00 +20°C° 0 mm 1 mps 726 mmHg 63%
05:00 +20°C° 0 mm 1 mps 726 mmHg 64%
06:00 +22°C° 0 mm 1 mps 727 mmHg 58%
07:00 +24°C° 0 mm 1 mps 727 mmHg 52%
08:00 +26°C° 0 mm 1 mps 727 mmHg 46%
09:00 +28°C° 0 mm 2 mps 727 mmHg 42%
10:00 +29°C° 0 mm 2 mps 727 mmHg 37%
11:00 +31°C° 0 mm 3 mps 728 mmHg 33%
12:00 +33°C° 0 mm 3 mps 727 mmHg 31%
13:00 +34°C° 0 mm 3 mps 727 mmHg 29%
14:00 +35°C° 0 mm 3 mps 727 mmHg 26%
15:00 +35°C° 0 mm 3 mps 727 mmHg 26%
16:00 +35°C° 0 mm 2 mps 726 mmHg 26%
17:00 +35°C° 0 mm 2 mps 726 mmHg 26%
18:00 +32°C° 0 mm 2 mps 726 mmHg 30%
19:00 +29°C° 0 mm 2 mps 726 mmHg 35%
20:00 +27°C° 0 mm 2 mps 726 mmHg 40%
21:00 +26°C° 0 mm 2 mps 726 mmHg 44%
22:00 +24°C° 0 mm 1 mps 726 mmHg 49%
23:00 +23°C° 0 mm 1 mps 726 mmHg 53%

Day after tomorrow, 12 August, Wednesday

Time Temperature Precipitation Wind Pressure Humidity
00:00 +22°C° 0 mm 1 mps 726 mmHg 55%
01:00 +22°C° 0 mm 1 mps 726 mmHg 56%
02:00 +21°C° 0 mm 1 mps 726 mmHg 58%
03:00 +21°C° 0 mm 1 mps 726 mmHg 59%
04:00 +21°C° 0 mm 1 mps 725 mmHg 59%
05:00 +21°C° 0 mm 1 mps 725 mmHg 60%
06:00 +23°C° 0 mm 1 mps 726 mmHg 54%
07:00 +25°C° 0 mm 1 mps 726 mmHg 49%
08:00 +27°C° 0 mm 1 mps 726 mmHg 43%
09:00 +29°C° 0 mm 1 mps 726 mmHg 40%
10:00 +31°C° 0 mm 2 mps 726 mmHg 36%
11:00 +32°C° 0 mm 2 mps 726 mmHg 32%
12:00 +34°C° 0 mm 2 mps 726 mmHg 31%
13:00 +35°C° 0 mm 2 mps 726 mmHg 29%
14:00 +35°C° 0 mm 2 mps 726 mmHg 28%
15:00 +35°C° 0 mm 2 mps 725 mmHg 29%
16:00 +34°C° 0 mm 2 mps 725 mmHg 30%
17:00 +34°C° 0 mm 2 mps 725 mmHg 31%
18:00 +31°C° 0 mm 2 mps 725 mmHg 38%
19:00 +28°C° 0 mm 2 mps 725 mmHg 45%
20:00 +26°C° 0 mm 1 mps 725 mmHg 51%
21:00 +25°C° 0 mm 1 mps 726 mmHg 54%
22:00 +24°C° 0 mm 1 mps 726 mmHg 57%
23:00 +23°C° 0 mm 1 mps 726 mmHg 60%

13 August, Thursday

Time Temperature Precipitation Wind Pressure Humidity
00:00 +23°C° 0 mm 1 mps 726 mmHg 62%
01:00 +22°C° 0 mm 1 mps 726 mmHg 64%
02:00 +22°C° 0 mm 1 mps 726 mmHg 65%
03:00 +21°C° 0 mm 1 mps 726 mmHg 67%
04:00 +21°C° 0 mm 1 mps 725 mmHg 68%
05:00 +21°C° 0 mm 1 mps 725 mmHg 70%
06:00 +22°C° 0 mm 1 mps 726 mmHg 65%
07:00 +24°C° 0 mm 2 mps 726 mmHg 60%
08:00 +26°C° 0 mm 2 mps 727 mmHg 55%
09:00 +27°C° 0.2 mm 2 mps 727 mmHg 50%
10:00 +29°C° 0.2 mm 3 mps 727 mmHg 46%
11:00 +30°C° 0.2 mm 3 mps 727 mmHg 42%
12:00 +29°C° 0.2 mm 3 mps 727 mmHg 45%
13:00 +29°C° 0.2 mm 3 mps 727 mmHg 47%
14:00 +28°C° 0.2 mm 3 mps 727 mmHg 50%
15:00 +27°C° 0.3 mm 4 mps 727 mmHg 55%
16:00 +26°C° 0.3 mm 4 mps 727 mmHg 61%
17:00 +25°C° 0.3 mm 4 mps 727 mmHg 66%
18:00 +23°C° 0.1 mm 4 mps 727 mmHg 72%
19:00 +22°C° 0.1 mm 3 mps 727 mmHg 78%
20:00 +21°C° 0.1 mm 3 mps 727 mmHg 83%
21:00 +20°C° 0.1 mm 3 mps 727 mmHg 86%
22:00 +20°C° 0.1 mm 2 mps 728 mmHg 89%
23:00 +19°C° 0.1 mm 2 mps 728 mmHg 91%

14 August, Friday

Time Temperature Precipitation Wind Pressure Humidity
00:00 +19°C° 0.1 mm 2 mps 728 mmHg 92%
01:00 +19°C° 0.1 mm 2 mps 728 mmHg 92%
02:00 +19°C° 0.1 mm 2 mps 728 mmHg 93%
03:00 +18°C° 0 mm 2 mps 728 mmHg 93%
04:00 +18°C° 0 mm 2 mps 727 mmHg 93%
05:00 +18°C° 0 mm 2 mps 727 mmHg 93%
06:00 +19°C° 0 mm 2 mps 728 mmHg 85%
07:00 +20°C° 0 mm 2 mps 728 mmHg 76%
08:00 +22°C° 0 mm 3 mps 728 mmHg 67%
09:00 +24°C° 0 mm 3 mps 728 mmHg 57%
10:00 +26°C° 0 mm 3 mps 728 mmHg 47%
11:00 +28°C° 0 mm 4 mps 729 mmHg 37%
12:00 +29°C° 0 mm 4 mps 728 mmHg 35%
13:00 +30°C° 0 mm 4 mps 728 mmHg 32%
14:00 +31°C° 0 mm 3 mps 727 mmHg 29%
15:00 +31°C° 0 mm 3 mps 727 mmHg 29%
16:00 +31°C° 0 mm 3 mps 727 mmHg 29%
17:00 +31°C° 0 mm 3 mps 727 mmHg 28%
18:00 +28°C° 0 mm 3 mps 727 mmHg 34%
19:00 +26°C° 0 mm 3 mps 727 mmHg 39%
20:00 +23°C° 0 mm 2 mps 727 mmHg 44%
21:00 +21°C° 0 mm 2 mps 727 mmHg 49%
22:00 +21°C° 0 mm 1 mps 727 mmHg 53%
23:00 +20°C° 0 mm 1 mps 727 mmHg 58%

15 August, Saturday

Time Temperature Precipitation Wind Pressure Humidity
00:00 +19°C° 0 mm 1 mps 727 mmHg 61%
01:00 +18°C° 0 mm 1 mps 727 mmHg 65%
02:00 +18°C° 0 mm 1 mps 727 mmHg 68%
03:00 +18°C° 0 mm 1 mps 727 mmHg 71%
04:00 +16°C° 0 mm 1 mps 727 mmHg 73%
05:00 +16°C° 0 mm 1 mps 726 mmHg 76%
06:00 +19°C° 0 mm 1 mps 727 mmHg 69%
07:00 +21°C° 0 mm 1 mps 727 mmHg 62%
08:00 +23°C° 0 mm 2 mps 727 mmHg 56%
09:00 +25°C° 0 mm 2 mps 727 mmHg 50%
10:00 +26°C° 0 mm 3 mps 727 mmHg 44%
11:00 +28°C° 0 mm 3 mps 727 mmHg 38%
12:00 +29°C° 0 mm 4 mps 727 mmHg 34%
13:00 +30°C° 0 mm 4 mps 727 mmHg 31%
14:00 +32°C° 0 mm 4 mps 726 mmHg 28%
15:00 +32°C° 0 mm 4 mps 726 mmHg 28%
16:00 +32°C° 0 mm 4 mps 725 mmHg 28%
17:00 +32°C° 0 mm 4 mps 725 mmHg 27%
18:00 +28°C° 0 mm 4 mps 725 mmHg 32%
19:00 +25°C° 0 mm 4 mps 725 mmHg 37%
20:00 +22°C° 0 mm 3 mps 725 mmHg 41%
21:00 +21°C° 0 mm 3 mps 725 mmHg 47%
22:00 +19°C° 0 mm 2 mps 725 mmHg 53%
23:00 +19°C° 0 mm 1 mps 725 mmHg 59%
Show more